{"data":{"norad_id":54068,"intl_designator":"2022-136T","name":"STARLINK-5222","alt_names":[],"object_type":"PAYLOAD","status":"ACTIVE","operator":null,"country":"US","launch_date":"2022-10-20","launch_site_code":"AFETR","launch_vehicle":null,"mission":null,"orbit_class":"UNKNOWN","rcs_meters":null,"size_class":null,"mass_kg":null,"dimensions":null,"purposes":["comms"],"wikipedia_slug":null,"has_3d_model":false,"image_url":null,"decayed_at":null,"tle_current":{"epoch":"2026-09-20T06:34:26.914368Z","epoch_age_seconds":106438,"freshness":"FRESH","line1":"1 54068U 22136T   26263.27392262 -.00000365  00000+0  44126-6 0  9996","line2":"2 54068  53.1603 180.5318 0001468  86.1573 273.9598 15.35392095216350","mean_motion":15.35392095,"eccentricity":0.0001468,"inclination_deg":53.1603,"raan_deg":180.5318,"arg_perigee_deg":86.1573,"mean_anomaly_deg":273.9598,"bstar":4.4126e-7,"rev_number":21635,"period_min":93.787118267012,"perigee_km":458.75230996027,"apogee_km":460.75991537814,"semimajor_km":6837.8931126692,"source":"CELESTRAK","updated_at":"2026-09-21T09:00:33.078835Z"}}}